Latest Weather Observations for Wattamolla

IDN60801

Issued at 10:35 pm EST Friday 18 April 2014 (issued every 30 minutes, with the page automatically refreshed every 10 minutes)

About weather observations | Map of weather stations | Latest weather observations for NSW | Other Formats
Station Details ID: 066208 Name: WATTAMOLLA AWS Lat: -34.14 Lon: 151.12 Height: 44.0 m
Data from the previous 72 hours. | See also: Recent months for locations in New South Wales
Date/Time
EST
Temp
°C
App
Temp
°C
Dew
Point
Rel
Hum
%
Delta-T
°C
Wind Press
QNH
hPa
Press
MSL
hPa
Rain
since 9 am
mm
Dir
 
Spd
km/h
Gust
km/h
Spd
kts
Gust
kts
18/10:30pm - - - - - WNW 22 30 12 16 - - -
18/10:00pm - - - - - NW 30 35 16 19 - - -
18/09:30pm - - - - - NW 26 32 14 17 - - -
18/09:00pm - - - - - NW 28 33 15 18 - - -
18/08:30pm - - - - - NW 24 30 13 16 - - -
18/08:00pm - - - - - WNW 22 33 12 18 - - -
18/07:30pm - - - - - WNW 15 19 8 10 - - -
18/07:00pm - - - - - WNW 15 19 8 10 - - -
18/06:30pm - - - - - WNW 15 19 8 10 - - -
18/06:00pm - - - - - WNW 15 19 8 10 - - -
18/05:30pm - - - - - W 6 11 3 6 - - -
18/05:00pm - - - - - S 7 11 4 6 - - -
18/04:30pm - - - - - S 9 9 5 5 - - -
18/04:00pm - - - - - S 9 15 5 8 - - -
18/03:30pm - - - - - SSE 13 19 7 10 - - -
18/03:00pm - - - - - SSE 13 19 7 10 - - -
18/02:30pm - - - - - SE 17 24 9 13 - - -
18/02:00pm - - - - - SSE 17 19 9 10 - - -
18/01:30pm - - - - - S 15 20 8 11 - - -
18/01:00pm - - - - - S 13 17 7 9 - - -
18/12:30pm - - - - - W 15 24 8 13 - - -
18/12:00pm - - - - - WNW 15 24 8 13 - - -
18/11:30am - - - - - WSW 11 17 6 9 - - -
18/11:00am - - - - - SW 13 20 7 11 - - -
18/10:30am - - - - - WSW 13 24 7 13 - - -
18/10:00am - - - - - WSW 13 19 7 10 - - -
18/09:30am - - - - - W 15 20 8 11 - - -
18/09:00am - - - - - WNW 13 22 7 12 - - -
18/08:30am - - - - - WNW 15 20 8 11 - - -
18/08:00am - - - - - NW 15 20 8 11 - - -
18/07:30am - - - - - NW 17 20 9 11 - - -
18/07:00am - - - - - NW 17 20 9 11 - - -
18/06:30am - - - - - WNW 20 26 11 14 - - -
18/06:00am - - - - - NW 19 22 10 12 - - -
18/05:30am - - - - - WNW 15 20 8 11 - - -
18/05:00am - - - - - WNW 15 17 8 9 - - -
18/04:30am - - - - - WNW 15 19 8 10 - - -
18/04:00am - - - - - W 20 24 11 13 - - -
18/03:30am - - - - - WNW 20 26 11 14 - - -
18/03:00am - - - - - WNW 20 26 11 14 - - -
18/02:30am - - - - - W 19 24 10 13 - - -
18/02:00am - - - - - W 19 20 10 11 - - -
18/01:30am - - - - - WSW 17 22 9 12 - - -
18/01:00am - - - - - W 17 20 9 11 - - -
18/12:30am - - - - - W 17 20 9 11 - - -
18/12:00am - - - - - SW 13 19 7 10 - - -
 
Date/Time
EST
Temp
°C
App
Temp
°C
Dew
Point
Rel
Hum
%
Delta-T
°C
Wind Press
QNH
hPa
Press
MSL
hPa
Rain
since 9 am
mm
Dir
 
Spd
km/h
Gust
km/h
Spd
kts
Gust
kts
17/11:30pm - - - - - S 17 28 9 15 - - -
17/11:00pm - - - - - S 30 37 16 20 - - -
17/10:30pm - - - - - S 35 48 19 26 - - -
17/10:00pm - - - - - S 28 39 15 21 - - -
17/09:30pm - - - - - S 28 35 15 19 - - -
17/09:00pm - - - - - SSW 17 26 9 14 - - -
17/08:30pm - - - - - S 24 37 13 20 - - -
17/08:00pm - - - - - S 32 39 17 21 - - -
17/07:30pm - - - - - S 37 50 20 27 - - -
17/07:00pm - - - - - S 39 48 21 26 - - -
17/06:30pm - - - - - S 43 56 23 30 - - -
17/06:00pm - - - - - S 44 56 24 30 - - -
17/05:30pm - - - - - S 44 56 24 30 - - -
17/05:00pm - - - - - S 46 56 25 30 - - -
17/04:30pm - - - - - S 48 57 26 31 - - -
17/04:00pm - - - - - S 46 57 25 31 - - -
17/03:30pm - - - - - S 50 59 27 32 - - -
17/03:00pm - - - - - S 44 52 24 28 - - -
17/02:30pm - - - - - S 43 52 23 28 - - -
17/02:00pm - - - - - S 39 48 21 26 - - -
17/01:30pm - - - - - S 39 48 21 26 - - -
17/01:00pm - - - - - S 43 52 23 28 - - -
17/12:30pm - - - - - S 41 52 22 28 - - -
17/12:00pm - - - - - S 43 54 23 29 - - -
17/11:30am - - - - - S 43 52 23 28 - - -
17/11:00am - - - - - S 44 52 24 28 - - -
17/10:30am - - - - - S 43 56 23 30 - - -
17/10:00am - - - - - S 35 43 19 23 - - -
17/09:30am - - - - - S 33 44 18 24 - - -
17/09:00am - - - - - S 33 43 18 23 - - -
17/08:30am - - - - - S 30 39 16 21 - - -
17/08:00am - - - - - S 28 37 15 20 - - -
17/07:48am - - - - - S 28 37 15 20 - - -
17/07:30am - - - - - WSW 13 19 7 10 - - -
17/07:00am - - - - - SW 15 28 8 15 - - -
17/06:30am - - - - - S 32 41 17 22 - - -
17/06:00am - - - - - S 28 37 15 20 - - -
17/05:30am - - - - - S 28 39 15 21 - - -
17/05:00am - - - - - S 24 43 13 23 - - -
17/04:30am - - - - - SSW 17 26 9 14 - - -
17/04:00am - - - - - S 28 39 15 21 - - -
17/03:30am - - - - - S 26 41 14 22 - - -
17/03:00am - - - - - S 24 39 13 21 - - -
17/02:30am - - - - - SSW 20 33 11 18 - - -
17/02:00am - - - - - SSW 20 35 11 19 - - -
17/01:30am - - - - - S 24 37 13 20 - - -
17/01:00am - - - - - S 24 37 13 20 - - -
17/12:30am - - - - - S 20 33 11 18 - - -
17/12:00am - - - - - S 22 37 12 20 - - -
 
Date/Time
EST
Temp
°C
App
Temp
°C
Dew
Point
Rel
Hum
%
Delta-T
°C
Wind Press
QNH
hPa
Press
MSL
hPa
Rain
since 9 am
mm
Dir
 
Spd
km/h
Gust
km/h
Spd
kts
Gust
kts
16/11:30pm - - - - - S 28 37 15 20 - - -
16/11:00pm - - - - - S 28 41 15 22 - - -
16/10:30pm - - - - - S 35 46 19 25 - - -
16/10:00pm - - - - - S 20 32 11 17 - - -
16/09:30pm - - - - - S 32 41 17 22 - - -
16/09:07pm - - - - - S 28 46 15 25 - - -
16/09:00pm - - - - - S 32 46 17 25 - - -
16/08:30pm - - - - - S 28 46 15 25 - - -
16/08:00pm - - - - - S 20 33 11 18 - - -
16/07:30pm - - - - - S 22 33 12 18 - - -
16/07:00pm - - - - - S 46 54 25 29 - - -
16/06:30pm - - - - - S 46 57 25 31 - - -
16/06:00pm - - - - - S 46 63 25 34 - - -
16/05:30pm - - - - - S 46 57 25 31 - - -
16/05:00pm - - - - - S 46 52 25 28 - - -
16/04:30pm - - - - - S 44 56 24 30 - - -
16/04:00pm - - - - - S 46 54 25 29 - - -
16/03:30pm - - - - - S 48 56 26 30 - - -
16/03:00pm - - - - - S 46 54 25 29 - - -
16/02:30pm - - - - - S 43 54 23 29 - - -
16/02:00pm - - - - - S 48 56 26 30 - - -
16/01:30pm - - - - - S 44 52 24 28 - - -
16/01:00pm - - - - - S 41 52 22 28 - - -
16/12:30pm - - - - - S 39 48 21 26 - - -
16/12:00pm - - - - - S 35 46 19 25 - - -
16/11:30am - - - - - S 44 52 24 28 - - -
16/11:00am - - - - - S 46 57 25 31 - - -
16/10:30am - - - - - S 46 59 25 32 - - -
16/10:00am - - - - - S 44 56 24 30 - - -
16/09:30am - - - - - S 41 52 22 28 - - -
16/09:00am - - - - - S 37 54 20 29 - - -
16/08:30am - - - - - S 32 50 17 27 - - -
16/08:23am - - - - - S 37 56 20 30 - - -
16/08:00am - - - - - S 41 54 22 29 - - -
16/07:30am - - - - - S 41 57 22 31 - - -
16/07:00am - - - - - S 37 59 20 32 - - -
16/06:45am - - - - - S 33 52 18 28 - - -
16/06:30am - - - - - S 35 50 19 27 - - -
16/06:00am - - - - - S 46 59 25 32 - - -
16/05:34am - - - - - S 44 63 24 34 - - -
16/05:30am - - - - - S 46 59 25 32 - - -
16/05:00am - - - - - S 50 65 27 35 - - -
16/04:33am - - - - - S 41 61 22 33 - - -
16/04:30am - - - - - S 41 56 22 30 - - -
16/04:19am - - - - - S 46 65 25 35 - - -
16/04:00am - - - - - S 44 59 24 32 - - -
16/03:30am - - - - - S 37 56 20 30 - - -
16/03:11am - - - - - S 50 69 27 37 - - -
16/03:00am - - - - - S 48 63 26 34 - - -
16/02:54am - - - - - S 50 69 27 37 - - -
16/02:30am - - - - - S 57 70 31 38 - - -
16/02:00am - - - - - S 61 72 33 39 - - -
16/01:30am - - - - - S 57 70 31 38 - - -
16/01:00am - - - - - S 54 63 29 34 - - -
16/12:30am - - - - - S 54 61 29 33 - - -
16/12:00am - - - - - S 48 61 26 33 - - -
 
Date/Time
EST
Temp
°C
App
Temp
°C
Dew
Point
Rel
Hum
%
Delta-T
°C
Wind Press
QNH
hPa
Press
MSL
hPa
Rain
since 9 am
mm
Dir
 
Spd
km/h
Gust
km/h
Spd
kts
Gust
kts
15/11:33pm - - - - - S 33 56 18 30 - - -
15/11:30pm - - - - - S 32 48 17 26 - - -
15/11:19pm - - - - - S 52 70 28 38 - - -
15/11:08pm - - - - - S 56 69 30 37 - - -
15/11:00pm - - - - - S 35 56 19 30 - - -

Other Formats:

Comma delimited format used in spreadsheet applications
http://www.bom.gov.au/fwo/IDN60801/IDN60801.95752.axf

JavaScript Object Notation format (JSON) in row-major order
http://www.bom.gov.au/fwo/IDN60801/IDN60801.95752.json